User: anonymous   Login
Location: Belfast
(54.5830°N, 5.9330°W)
Time: 16:32:52
(UTC+01:00)
Language:

Coronas F rocket - Orbit

View from above orbital plane
View from above orbital plane
View from above satellite
View from above satellite

Ground track
Ground track

The orbit data is extracted from the following two-line orbital elements,

1 26874U 01032B   16271.49348572  .00058093  00000-0  22993-3 0  9995
2 26874  82.4600 169.3988 0006933 143.9938 216.2334 15.86664538851839
Epoch (UTC): 27 September 2016 11:50:37
Eccentricity: 0.0006933
inclination: 82.4600°
perigee height: 307 km
apogee height: 316 km
right ascension of ascending node: 169.3988°
argument of perigee: 143.9938°
revolutions per day: 15.86664538
mean anomaly at epoch: 216.2334°
orbit number at epoch: 85183

The dashed part of the orbit path shows where the satellite is in the earth's shadow,  

DLR